Regional Weather Roundup
Issued by NWS

Home | Current Version | Previous Version | Text Only | Print | Product List | Glossary On
Versions: 1 2 3 4 5 6 7 8 9 10 11 12 13 14 15 16 17 18 19 20 21 22 23 24 25 26 27 28 29 30 31 32 33 34 35 36 37 38 39 40 41 42 43 44 45 46 47 48 49 50
000
ASUS45 KBOU 221510
RWRCO

WEATHER ROUNDUP FOR COLORADO
NATIONAL WEATHER SERVICE DENVER/BOULDER CO
900 AM MDT SAT SEP 22 2018

NOTE: "FAIR" INDICATES FEW OR NO CLOUDS BELOW 12000 FEET WITH NO
SIGNIFICANT WEATHER AND/OR OBSTRUCTIONS TO VISIBILITY.

COZ001>005-013-030-031-221600-
...NORTHWEST COLORADO...

CITY           SKY/WX    TMP DP  RH WIND       PRES   REMARKS
CRAIG          FAIR      46  20  35 W3        30.32S
HAYDEN         FAIR      49  15  25 E15       30.34F
MEEKER         FAIR      50  17  27 CALM      30.34S
RANGELY        FAIR      49  20  31 CALM      30.28S
RABBIT EARS PA FAIR      46  12  25 SW6       30.55R
STEAMBOAT SPGS FAIR      40  18  41 CALM      30.36F
WALDEN         NOT AVBL
$$

COZ006>008-011-221600-
...WEST CENTRAL VALLEYS...

CITY           SKY/WX    TMP DP  RH WIND       PRES   REMARKS
GRAND JUNCTION FAIR      61 N/A N/A SE9       30.26R
MONTROSE       FAIR      56  36  47 SE6       30.34S
EAGLE          FAIR      42  16  34 CALM      30.43S
RIFLE          FAIR      52  21  29 CALM      30.32F
DELTA          FAIR      58  23  26 NE6       30.32R
NUCLA          FAIR      57  27  30 CALM      30.37S
$$

COZ017>023-064>068-221600-
...SOUTHWEST COLORADO...

CITY           SKY/WX    TMP DP  RH WIND       PRES   REMARKS
DURANGO        FAIR      56  41  57 CALM      30.42R
CORTEZ         FAIR      59  42  53 CALM      30.36R
PAGOSA SPRINGS FAIR      54  39  56 CALM      30.47R
TELLURIDE      FAIR      52  28  40 CALM      30.53S
WOLF CREEK PAS FAIR      43  34  70 S3        30.72S
$$

COZ009-010-012-014-032>034-037-058>063-221600-
...CENTRAL COLORADO...

CITY           SKY/WX    TMP DP  RH WIND       PRES   REMARKS
ASPEN          FAIR      53  22  29 SE5       30.41S
BUENA VISTA    FAIR      50  33  50 NW3       30.46S
COPPER MTN     FAIR      48   7  18 W8        30.66R
BERTHOUD PASS  FAIR      37  23  56 NW28G38   30.64R
COTTONWOOD PAS FAIR      50  32  50 SE5       30.54R
GUNNISON       FAIR      42  26  53 CALM      30.49S
GRANBY         FAIR      38  19  45 CALM      30.48S
KREMMLING      FAIR      37  19  48 CALM      30.46S
LEADVILLE      FAIR      45  23  42 CALM      30.54R
MONARCH PASS   FAIR      41  27  56 W24       30.76R
SALIDA         FAIR      53  37  54 NW7       30.50F
SUNLIGHT       FAIR      45  10  24 SW8       30.61S
WILKERSON PASS FAIR      41  28  60 W9G17     30.61R
$$

COZ069>075-221600-
...SAN LUIS VALLEY/SANGRE DE CRISTO MOUNTAINS...

CITY           SKY/WX    TMP DP  RH WIND       PRES   REMARKS
ALAMOSA        FAIR      50  44  80 SW8       30.46R
DEL NORTE      FAIR      52  37  56 E5        30.48S
LA VETA PASS   NOT AVBL
SAGUACHE       FAIR      50  37  62 CALM      30.48S
$$

COZ035-036-038>040-221600-
...NORTHERN COLORADO FRONT RANGE...

CITY           SKY/WX    TMP DP  RH WIND       PRES   REMARKS
DENVER INTL AP FAIR      65  41  41 SW10      30.21S
AURORA         MOSUNNY   66  40  37 SW13      30.22R
FRONT RANGE AP SUNNY     66  43  42 W6        30.23R
ERIE MUNI ARPT FAIR      58  44  58 CALM      30.26S
BOULDER MUN AP FAIR      59  36  41 SE3       30.21R
CENTENNIAL     FAIR      69  36  29 SW14      30.24R
BROOMFIELD     SUNNY     61  34  36 CALM      30.23
FORT COLLINS   FAIR      58  35  42 S6        30.20S
LONGMONT       FAIR      62  44  51 S5        30.21S
$$

COZ041-046-047-076>085-087-088-221600-
...PIKES PEAK/PALMER DIVIDE AND SOUTHERN FOOTHILLS...

CITY           SKY/WX    TMP DP  RH WIND       PRES   REMARKS
COLO. SPRINGS  FAIR      59  43  55 CALM      30.29R
A. F. ACADEMY  NOT AVBL
SCHRIEVER AFB  NOT AVBL
CHEYENNE MTN   NOT AVBL
ELLICOTT         N/A    N/A N/A N/A SW5       30.27R
FALCON         FAIR      67  33  28 S6        30.32R
FORT CARSON    NOT AVBL
LIMON          FAIR      54  42  64 SE5       30.24S
MONUMENT HILL  FAIR      64  32  29 W13G20    30.33S
CANON CITY     SUNNY     63  45  51 S9        30.24F
WALSENBURG     NOT AVBL
TRINIDAD       FAIR      63  50  62 W16       30.29S
$$

COZ042>045-048>051-090-091-221600-
...NORTHEAST COLORADO...

CITY           SKY/WX    TMP DP  RH WIND       PRES   REMARKS
GREELEY ARPT   NOT AVBL
AKRON          FAIR      61  46  57 SW13      30.18S
BURLINGTON     FAIR      63  34  33 S23G33    30.21S
WRAY           FAIR      63  41  45 S10G16    30.18F
YUMA           NOT AVBL
STERLING       FAIR      55  45  67 SW6       30.15S
HOLYOKE        FAIR      61  45  55 S10G16    30.18S
FORT MORGAN    FAIR      56  43  61 W9        30.19R
$$

COZ086-089-092>099-221600-
...SOUTHEAST COLORADO...

CITY           SKY/WX    TMP DP  RH WIND       PRES   REMARKS
PUEBLO         FAIR      58  43  57 CALM      30.23S
LA JUNTA       FAIR      63  46  54 CALM      30.22S
LAMAR          FAIR      67  46  47 S8        30.20F
SPRINGFIELD      N/A     63  48  58 S21       30.26S
$$



USA.gov is the U.S. government's official web portal to all federal, state and local government web resources and services.